Home   Weather   Sitka   Past weeks

Flag for USA Past Weather in Sitka, Alaska, USA — Yesterday and Last 2 Weeks

51 °F

Mostly cloudy.

Feels Like: 48 °F
Forecast: 47 / 50 °F
Wind: 8 mph from East

Location: Sitka Airport

Current Time: Oct 21, 2016 at 3:14:03 AM

Latest Report: Oct 21, 2016 at 1:53 AM

Visibility: 10 mi

Pressure: 29.47 "Hg

Humidity: 61%

Dew Point: 38 °F

Location of SitkaLocation

Past Weather in Sitka — Graph


Sitka Temperature Yesterday

Maximum temperature yesterday: 50 °F (at 6:53 AM)
Minimum temperature yesterday: 46 °F (at 2:53 AM)
Average temperature yesterday: 48 °F

High & Low Weather Summary for the Past Weeks

High58 °F (Oct 7, 12:53 PM)93% (Oct 15, 12:53 PM)30.21 "Hg (Oct 15, 12:53 PM)
Low36 °F (Oct 11, 4:53 AM)31% (Oct 13, 1:53 PM)29.04 "Hg (Oct 16, 2:53 AM)
Average47 °F70%29.66 "Hg
* Reported Oct 6 1:53 AM — Oct 21 1:53 AM, Sitka, Weather by CustomWeather, © 2016

Note: Actual official high and low records may vary slightly from our data, if they occured in-between our weather recording intervals... More about our weather records


Sitka Weather History for the Previous 24 Hours

Scroll right to see more
Time TempWeatherWind HumidityBarometerVisibility
1:53 AM
Fri, Oct 21
51 °FMostly cloudy.8 mph61%29.47 "Hg10 mi
12:53 AM51 °FOvercast.12 mph66%29.49 "Hg10 mi
11:53 PM
Thu, Oct 20
50 °FMostly cloudy.10 mph68%29.51 "Hg10 mi
10:53 PM48 °FOvercast.No wind74%29.52 "Hg10 mi
9:53 PM48 °FOvercast.6 mph71%29.54 "Hg10 mi
8:53 PM47 °FPassing clouds.9 mph74%29.55 "Hg10 mi
7:53 PM47 °FPassing clouds.8 mph77%29.56 "Hg10 mi
6:53 PM46 °FPartly cloudy.6 mph83%29.56 "Hg10 mi
5:53 PM47 °FOvercast.7 mph83%29.56 "Hg10 mi
4:53 PM47 °FLight rain. Fog.3 mph90%29.56 "Hg6 mi
3:53 PM47 °FLight rain. Overcast.3 mph86%29.56 "Hg10 mi
2:53 PM47 °FLight rain. Fog.6 mph86%29.55 "Hg6 mi
1:53 PM48 °FLight rain. Mostly cloudy.5 mph83%29.54 "Hg10 mi
12:53 PM50 °FLight rain. Cloudy.8 mph68%29.54 "Hg10 mi
11:53 AM50 °FLight rain. Mostly cloudy.14 mph66%29.53 "Hg10 mi
10:53 AM50 °FMostly cloudy.10 mph66%29.52 "Hg10 mi
9:53 AM50 °FOvercast.10 mph63%29.52 "Hg10 mi
8:53 AM50 °FOvercast.12 mph66%29.52 "Hg10 mi
7:53 AM50 °FOvercast.12 mph66%29.53 "Hg10 mi
6:53 AM50 °FOvercast.12 mph66%29.52 "Hg10 mi
5:53 AM49 °FLight rain. Mostly cloudy.8 mph71%29.53 "Hg10 mi
4:53 AM49 °FMostly cloudy.7 mph71%29.55 "Hg10 mi
3:53 AM49 °FMostly cloudy.8 mph77%29.56 "Hg10 mi
Weather by CustomWeather, © 2016

See weather overviewHow to use our weather pages